Race Results for
DORBA 2011 Fall XC Series - Cedar Hill State Park
Cedar Hill, TX
(Event Information)
View By:
Cross Country on 09/11/2011

Note: Ranking points are NOT upgrade points. An explanation of ranking points can be found here.


Men - Pro/Open (23.8 Miles)

 Place Points NameCity, StateTime USAC #BibTeam
1271.51Lisa Uranga   Irving, TX2:22:13.93 325178  486 PACC
1271.51Nevada Thomason   Whitehouse, TX1:41:37.95 187734  609 
2295.27Matt Gordon   Austin, TX1:43:53.40 13715  599 
3319.03Josh Clark   Fort Worth, TX1:44:13.37 153682  595 Broken Films Racing
4342.79Lucas Brusseau   Denton, TX1:47:05.99 5255  613 Southern Elite/Subaru
5366.55Jeremy Morris   Arlington, TX1:47:26.46 272491  589 B & B Bicycles
6390.31Nicholas Garza   Flower Mound, TX1:48:43.47 218994  598 
7414.07Colin Roberson   Fort Worth, TX1:49:54.49 286774  605 
8437.83Kyle Rangel   La Grange, TX1:56:07.37 328746  600 
9461.59Zachary Carlson   Plano, TX1:58:31.26 277433  482 RBM/MATRIX
DNSRyan Scott     375 

Men - Cat 1/2/3 - Single Speed (23.8 Miles)

 Place Points NameCity, StateTime USAC #BibTeam
1447.47Kristopher Chelette   Dallas, TX1:58:31.02 226472  376 DALLAS BIKE WORKS
2482.61Mark Ashton   Dallas, TX2:00:24.07 157294  488 Mirage
3517.75Brian Brennfoerder   Plano, TX2:03:27.37 145766  483 BIG PIG RACING
4Steven Hall   2:05:41.81  524 Team Slow Go
5588.03Chris Carlson   Plano, TX2:15:36.31 6135  484 RBM/MATRIX

Men - Cat 1 - Senior - 19-29 (23.8 Miles)

 Place Points NameCity, StateTime USAC #BibTeam
1Stewart Ericson   Bedford, TX1:51:40.13 312394  610 BICYCLE INC.
2Jessica Rawlins   Denton, TX1:56:33.60 308761  585 

Men - Cat 1 - Master - 30-39 (23.8 Miles)

 Place Points NameCity, StateTime USAC #BibTeam
1360.03Ken Primer   Flower Mound, TX1:48:34.07 212529  472 BICYCLES PLUS
2384.50Rey Vera   Keller, TX1:48:45.67 279173  372 BICYCLES PLUS
3408.97Joey Guajardo   Dallas, TX1:48:50.71 290830  370 THE MISSING
4433.44Stephen Hardy   Dallas, TX1:49:36.92 145305  591 
5457.91Tim Rawlins   Denton, TX1:52:13.63 308762  586 
6482.38Steven Horvath   Fort Worth, TX1:53:00.67 309278  371 BICYCLES INC.
7Jp Williams   1:53:31.41  592 
8531.32William Mabus   Dallas, TX2:05:12.37 42117  471 Orbea

Men - Cat 1 - Master - 40-49 (8.6 Miles)

 Place Points NameCity, StateTime USAC #BibTeam
1358.32Jeff Turner   Richardson, TX1:49:31.13 177873  612 PARK PLACE DEALERSHIPS
2374.69Mike Norman   Fort Worth, TX1:50:23.24 278106  474 
3391.06Vaughn Cavanaugh   Houston, TX1:50:34.74 194241  588 
4407.43Jason Grimes   Hurst, TX1:51:08.00 209149  476 Bicycle Plus - TEAM OA
5423.80Boyd Wallace   Garland, TX1:52:18.77 163030  603 
6440.17Joe Gold   Dallas, TX1:52:55.09 68231  601 Southern Elite/Sun & Ski Sports
7456.54Jordan Chaney   Dallas, TX1:54:38.52 151023  473 RBM/MIRAGE
8472.91Carlos Uranga   Irving, TX1:55:08.26 325182  475 PACC
9Rick Phelar   1:56:27.77  590 
10505.65Herb Jones   Murphy, TX2:00:29.96 358650  593 
11Gary Osborne   2:01:36.82  373 Odin Telesystem
DNFJohn Larson   Mckinney, TX40:15.45 194312  597 

Men - Cat 1 - Master - 50+ (8.6 Miles)

 Place Points NameCity, StateTime USAC #BibTeam
1389.15Todd Fox   Southlake, TX1:52:32.29 12174  587 
2402.30Steve Houlbjerg   Kennedale, TX1:53:05.03 16827  596 
3415.45Lawrence Colvin   Weatherford, TX1:54:05.93 304354  374 
4428.60Mark Pruitt   Fort Worth1:56:18.08 28786  604 
5441.75Don Losawyer   Arlington, TX1:58:47.01 275430  584 Plano Athletic Cycling Club/PACC
6454.90Travis Rohde   Mesquite, TX2:00:48.57 65865  480 ROCKWALL CYCLING
7468.05Alan Johnson   Dallas, TX2:02:33.22 157600  479 RBM / Matrix Cycle Club
8481.20James Argabright   Richardson, TX2:06:59.75 98324  594 
9494.35Mark Hargis   Grapevine, TX2:11:13.94 140813  478 Bicycles Inc
10507.50Scott Schaefer   Houston, TX2:23:24.96 126923  481 SOUTHERN ELITE/SUN AND SKI
DNFDrake Moore   Mc Kinney, TX44:05.39 24908  608 

Men - Cat 2 - Single Speed (8.6 Miles)

 Place Points NameCity, StateTime USAC #BibTeam
1540.00Adam Phillips   Keller, TX1:29:09.29 316584  400 RYR CYCLING
2543.12Chris Burt   Dallas, TX1:29:21.01 315000  397 BIG PIG RACING
3Vic Dean   1:30:00.76  518 BIG PIG RACING
4Dave Floyd   1:31:04.54  625 
5552.48Jason Pettit   Fort Worth, TX1:31:51.71 310570  517 RYR CYCLING
6Dana Burch   1:33:11.11  396 BIG PIG RACING
7558.72David Light   Bedford, TX1:33:56.71 319780  652 RYR CYCLING
8561.84Philip Haigh   Dallas1:34:52.86 359282  398 
9Aaron Munoz   1:36:26.49  426 
10Charles Pipes   1:36:48.29  636 
11Tony Robson   1:37:22.55  519 
12574.32Mikel Davis   Jonesboro, AR1:39:22.29 267523  671 
13577.44Tyler Hancock   Rockwall, TX1:39:44.08 260170  633 BIG PIG RACING
14580.56Joe Self   Whitehouse, TX1:40:08.66 357458  520 Elite Bicycles
15583.68Paul Hakes   Irving, TX1:42:16.45 359297  395 DORBA
16586.80Benjamin Wright   Fort Worth, TX1:45:29.98 86047  638 BIG PIG RACING
17589.92Randy Rogers   Sunnyvale, TX1:49:22.01 158922  647 Mirage
DNSMichael Coon   Fort Worth, TX 243445  632 
DNFCurtis Layton   59:00.74  399 
DNFJohn Blaskovich   Lewisville, TX58:20.32 273718  666 BIG PIG RACING
DNFAlex Hernandez   Plano, TX55:42.71 289404  621 BIG PIG RACING
DNFCarl Varriale   Southlake51:00.83 360812  688 

Men - Cat 2 - Senior - 19-29 (16.2 Miles)

 Place Points NameCity, StateTime USAC #BibTeam
1468.05Jacob Asay   Fort Worth, TX1:18:11.55 324352  624 
2483.29Kendall Young   Palisade, CO1:18:33.38 173243  630 
3498.53Kevin Campagna   Dallas, TX1:18:43.86 272131  489 BICYCLES PLUS
4Isaac Gallegos   1:19:02.42  492 
5529.01Matt Beall   Little Rock Ar1:21:00.67 366315  491 Green Spot Market and Fuels
6544.25Matt Asay   Azle, TX1:21:36.24 315012  678 BICYCLES INC.
7559.49Rob Sandusky   Frisco, TX1:30:17.07 291129  490 MATRIX/RICHARDSON BIKE MART
8574.73Tyler Chidester   Corinth, TX1:36:55.18 282889  525 Corinth Cycling/Harden Dental
9589.97Dean Rogers   Bellevue, WA1:54:43.32 70620  620 

Men - Cat 2 - Master - 30-39 (8.6 Miles)

 Place Points NameCity, StateTime USAC #BibTeam
1Joey Pratt   1:15:08.53  641 Cadence Cyclery of McKinney
2540.00Chris Williams   Dallas, TX1:15:18.29 236000  506 Vita Brevis
3540.00David Ness   Lewisville, TX1:15:58.33 361040  629 BICYCLES PLUS
4540.00Matt Mueller   Flowermound, TX1:17:42.36 279238  617 Bicycle Plus - TEAM OA
5540.00John Bain   Dallas, TX1:18:23.39 301213  677 
6540.00Steve Allen   Allen, TX1:18:40.83 357599  627 DALLAS BIKE WORKS
7Thomas Young   1:19:28.44  383 iConstruct Inc.
8540.00Taury Patterson   Dallas, TX1:19:30.30 360255  668 
9Joey Gabel   1:19:34.75  379 Sun & Ski
10Dandy Villanueva   1:19:58.35  504 DALLAS BIKE WORKS
11Jeremy Westerlund   1:20:09.90  505 
12540.00Jamie Bell   Arlington, TX1:20:14.14 303829  622 BICYCLE INC.
13540.00Rodger Nutt   Mckinney, TX1:20:17.79 346402  498 MCKINNEY VELO
14Nathaniel Goodell   1:20:28.28  626 SUN AND SKI SPORTS
15540.00Ryan Brown   Mckinney, TX1:20:32.81 281962  377 BIG PIG RACING
16Justin McCracken   1:21:30.62  380 SOUTHERN ELITE/SUN & SKI
17540.00Bryan Roberts   Keller, TX1:21:38.97 219898  503 TBI
18540.00Troy Anderson   Dallas1:22:12.48 341138  628 
19540.00Mack McKinney   Dallas, TX1:22:31.75 301751  658 
20540.00Scott Long   Keller, TX1:22:39.51 144572  497 
21540.00Christopher Schaefer   Dallas, TX1:22:55.84 310215  499 DALLAS BIKE WORKS
22540.00Jonathan Roach   Dallas, TX1:23:12.96 193629  645 
23540.00Jeremy Ordaz   Dallas, TX1:23:24.67 335020  646 OAK CLIFF BICYCLE CO
24Oscar Llazaro   1:23:36.16  618 
25Travis Reiss   1:24:07.31  382 
26540.00Scott Hite   Pilotpoint, TX1:24:32.51 309741  619 Team Phoenix
27540.00Marc Lequire   Carrollton, TX1:25:02.88 291354  502 Sun & Ski Sports
28540.00Jacobe Daniels   Red Oak, TX1:25:19.13 344504  493 VENTUREEXPEDITIONS.ORG
29540.00Juan Carlos Flores   Lake City, CO1:26:20.93 162254  650 
30540.00Glen Dyson   New Braunfels, TX1:28:43.24 166940  494 GSTenzing
31Daniel Fitzek   1:28:43.59  501 
32Matthew Overington   1:29:51.39  665 
33540.00Jeremy Dean   Rowlett, TX1:30:34.95 298493  378 
34Amir Khalil   1:31:47.13  495 Team Performance
35540.00Vince Parshall   Mckinney, TX1:32:12.68 289622  637 DALLAS BIKE WORKS
36Kerry Kampschroeder   1:36:33.12  526 
DNSJoshua Storm   Prosper, TX 200929  500 
DNSMatthew Kimber   Arlington, TX 347504  496 
DNFTommy Porter   52:05.28  381 
DNFMartin Bergstrand   Mc Kinney, TX46:39.73 359841  675 

Men - Cat 2 - Master - 40-49 (8.6 Miles)

 Place Points NameCity, StateTime USAC #BibTeam
1540.00joe gonzalez   Allen, TX1:17:45.35 335912  676 
2Scott McCoy   1:18:00.66  390 
3542.72David Dederichs   Mckinney, TX1:19:55.70 343156  384 MCKINNEY VELO
4544.08Peter Timmerman   Lewisville, TX1:21:21.86 86629  511 Northshore Westsyed
5545.44Brent Murphy   Flower Mound, TX1:21:38.20 318704  672 
6546.80Rodney Austin   Arlington, TX1:22:02.20 350298  649 DALLAS BIKE WORKS
7548.16David Key   Newark, DE1:22:24.77 19052  659 
8549.52Tony Martinez   Washington, DC1:22:29.56 22765  667 NTMBP
9550.88Jerry McNutt   Mesquite, TX1:22:33.51 287676  656 BIG PIG RACING
10Roger Decoster   1:22:47.11  642 
11553.60David Webb   Dallas, TX1:22:57.43 37461  507 BICYCLES PLUS
12554.96Jason Falk   Garland, TX1:23:20.12 357991  508 
13Gary Moore   1:23:21.65  403 
14557.68Scott Chidester   Corinth, TX1:23:26.43 282888  527 Corinth Cycling/Harden Dental
15Rick Knogler   1:23:39.76  663 
16560.40Kevin Witherstine   Prosper, TX1:23:56.02 292486  674 
17Jeffrey Cretella   1:23:57.85  664 
18563.12Andrew Kelsey   Flower Mound1:24:11.89 143516  388 
19Chris Schmiedele   1:25:38.87  662 
20565.84Mark Engelberg   Dallas, TX1:25:50.04 10810  654 
21John Markham   1:26:00.18  509 
22568.56Dennis Livingston   Red Oak, TX1:26:16.55 185910  389 
23569.92Michael Ridener   Euless, TX1:26:25.11 68703  640 BICYCLES INC.
24Chris Merlick   1:27:19.41  616 
25Howard Mims   1:28:49.81  510 Dirt Side Ministry
26Juan Garcia   1:30:48.96  653 
27575.36Ron Phillips   Pittsburgh, PA1:36:34.76 194059  444 
28576.72Alex Rasmussen   Ft Worth, TX1:39:01.98 187788  660 
29578.08Phillip Norman   Dallas, TX1:39:32.64 332570  402 
30579.44Christopher Bolan   North Richland Hills, TX1:40:28.79 147122  386 
31580.80Jeffrey Noon   Mansfield, TX1:40:48.41 237854  643 SUN AND SKI SPORTS
32Tom Clark   1:42:55.77  387 
DNSscott schmidt   Frisco, TX 313584  385 
DNFJohn Ashby   Texarkana, AR51:53.74 304034  611 

Men - Cat 2 - Master - 50+ (16.2 Miles)

 Place Points NameCity, StateTime USAC #BibTeam
1540.00Rick Breckenridge   Bedford, TX1:20:00.55 216830  513 BICYCLES INC.
2544.55Frank Stich   Coppell, TX1:20:05.39 327594  516 BICYCLES PLUS
3Bobby Bates   1:21:43.87  512 TORTOISE RACING
4553.65Diego Velasquez   Mckinney, TX1:21:52.86 269478  623 Team Aguila
5James Heerwagen   1:23:14.61  394 Bicycles Plus/ Team OA
6562.75David Gray   Plano, TX1:26:44.40 204532  393 
7567.30Stanley Ford   Crowley, TX1:26:51.02 286295  392 Bicycles Inc/Trek
8571.85Steve Innes   Mckinney, TX1:28:08.12 237765  514 
9576.40David Starr   Aubrey, TX1:32:10.09 291120  515 
10580.95Danny Sanchez   Bedford, TX1:32:53.51 288037  680 
11585.50Geoffrey Rogers   Frisco, TX1:41:03.41 140629  614 PACC
12Pete Stroin   1:55:18.64  615 

Men - Cat 3 - Clydesdale (8.6 Miles)

 Place Points NameCity, StateTime USAC #BibTeam
1Carey Peach   49:43.27  682 
2530.21Jason Mosley   Port Angeles, WA52:38.58 181225  696 
3Tim Harper   52:54.65  570 Atmos Energy Cycling Team
4Dan Sturdivant   53:47.32  724 
5560.09Brian Hunt   Grand Prairie, TX54:15.85 305435  569 
6570.05John Rooney   Forney, TX58:08.66 385389  457 
7Josh Watkins   1:01:46.68  458 
8David Lucas   1:02:15.83  749 

Men - Cat 3 - Junior - 1-9 (3 Miles)

 Place Points NameCity, StateTime USAC #BibTeam
1Marshall Rexroat   16:56.10  455 
2Landry Wycough   20:01.76  456 X-2 RACING
3551.12William Mabus   Dallas, TX20:29.45 42117  712 
4Ethan Hite   20:56.22  732 Team Phoenix
5Buckey Boulton   22:52.33  452 
6Austin Yackee   23:29.76  735 
7Blake Young   27:20.63  631 
8Andrew McDaniel   27:37.43  738 
9Gracen Pipes   49:33.22  634 
10590.04Luke Wright   Hemlode, NY1:02:46.63 183148  639 BIG PIG RACING
DNSGarrett Osborne     454 

Men - Cat 3 - Junior - 10-12 (5 Miles)

 Place Points NameCity, StateTime USAC #BibTeam
1540.00Jacob Howitt   Allen, TX30:10.17 354032  720 Matrix
2Blake Pilgrim   32:16.81  408 Richardson Bike Mart/Matrix JR
3547.14Reydesel Garcia   Mckinney, TX32:25.74 310049  721 Matrix
4550.71Bradyn Smith   Garland, TX32:27.07 354564  404 MATRIX/RBM
5Nate Moore   34:31.81  407 
6Woodrow Hazel   35:39.64  530 
7Thomas Bibb   36:21.49  711 
8David Pipes   36:38.42  635 
9568.56Sean Solomon   Fort Worth, TX36:46.83 330160  740 
10Gage Bullard   40:43.73  529 
11Braden Murphy   41:55.63  673 
12Adin Allison   43:27.60  751 
13Adam Hughes   44:04.35  692 
14Matthew Varriale   48:25.55  708 BIG PIG RACING
15Mike Hulcy   51:49.97  405 
DNSTrey McGee     406 
DNSDevin Carlson     528 

Men - Cat 3 - Junior - 13-18 (8.6 Miles)

 Place Points NameCity, StateTime USAC #BibTeam
1441.51Ethan Storm   Arlington, TX44:23.11 341794  410 Richardson Bike Mart/ Matrix
2449.11Austin Wagner   Burleson, TX44:36.88 336530  532 MATRIX/RBM
3456.71Grant Mills   Mc Kinney, TX46:05.47 330116  744 Frisco Cycling Club
4David Peterson   46:11.82  713 MATRIX/RBM
5471.91Cameron Lowery   Palmer, TX46:19.25 303680  739 
6479.51Mauricio Garcia   Miami, FL48:13.35 139327  655 SUN AND SKI SPORTS
7487.11R Henry Sandusky   Frisco, TX51:26.74 323098  531 MATRIX/RICHARDSON BIKE MART
8Nathan Loewen   52:44.14  411 
9Kevin Pereia   52:48.57  714 
10509.91Nash Lilly   Irving, TX54:12.14 341232  747 MATRIX/RBM
11517.51John O'Toole   Stamford, CT1:00:52.22 220275  534 
12Hunter Hughes   1:05:31.93  693 
13532.71Bradley Boulton   Alvarado, TX1:09:01.68 357382  409 Dallas off Road Bicycling Association (DOBRA)
14Zar Vates   1:12:57.60  719 MATRIX/RBM
15Jeffery Bynum   1:20:46.78  736 
16Hayden Brandenburger   1:23:00.91  741 

Men - Cat 3 - Senior - 19-29 (8.6 Miles)

 Place Points NameCity, StateTime USAC #BibTeam
1540.00Arthur Cowsen   Fort Worth, TX42:06.77 50921  754 
2542.78Matthew McLaurin   Dallas, TX42:30.09 359102  755 
3Nick Harvey   42:59.92  537 Team Aguila
4Jacob S   43:05.77  540 Dallas Bike Works / Hooters
5Anthony Killoran   44:33.28  538 
6Jon Skertich   44:53.13  416 
7556.68Aaron Mason   Grapevine, TX46:42.54 358059  413 BICYCLES PLUS
8Robert Robertson   46:45.84  539 
9Clayton Donovan   47:14.87  535 
10Caleb Coleman   48:34.93  710 
11Carlos Montes   48:48.47  718 
12Robert Ruffino   48:52.39  415 
13Jonathan Winnett   48:55.81  542 bicycle cntr. of fort worth
14Patrick Dooley   49:55.60  730 RBM / MATRIX
15Kevin Dunnahoo   50:56.15  412 
16Cody Quirk   54:08.58  414 
17Saad Haybayer   57:34.37  648 
18587.26Clayton Darnell   Dallas, TX58:58.51 353148  743 
19590.04Christian Gordon   Fairfax, CA1:01:05.61 273482  536 
DNSJeff Waldmuller     541 
DNSBrian Rangel     753 

Men - Cat 3 - Master - 30-39 (8.6 Miles)

 Place Points NameCity, StateTime USAC #BibTeam
1540.00Jerry Profeta   Little Elm, TX42:40.30 358636  428 Frisco Cycling Club
2541.28Casey Peach   Kemp, TX43:08.28 165796  683 
3542.56Dan Tarkanick   Flower Mound, TX43:34.07 352864  429 
4Clint Tredway   44:18.36  431 Don Johle's Bike World
5Chad Anderson   44:27.05  689 
6Rex Yackee   44:45.04  434 
7Rodman Reyes   45:02.77  686 
8548.96Bengt Mueck   Irving, TX45:13.06 348040  544 Dallas off Road Bicycling Association (DOBRA)
9550.24Chance Lehman   Dallas, TX45:13.48 357574  422 
10David Roquemore   45:54.26  670 
11Richard Hellberg   46:03.32  421 Jimmy John's - Downtown
12Corey Williams   46:10.12  554 
13Michael Harris   46:44.26  698 
14556.64Dennis Weimer   Nevada, TX46:53.41 341870  433 Sun n Ski
15Nathan Blasingame   46:56.88  546 
16Nathan Delahoussaye   47:02.73  418 
17560.48Dustin Walker   Austin, TX47:29.78 253730  707 
18Minh Nguyen   47:34.55  427 
19Doug Miller   47:51.55  424 
20Andrew Thomas   47:53.47  430 Adrenaline Flow
21Matt Gates   49:01.64  550 
22Mark Mito   49:09.60  425 Team Hairless Mice
23Brian Smith   49:17.42  553 Team Me Too WIcked Fast RBM
24569.44Curtis Manley   Mc Kinney, TX49:17.43 350460  423 
25Tom Attaway   50:23.96  545 
26Will Jobe   50:34.26  723 
27Stephen Hardison   51:05.97  715 
28Roy Quiroz   51:54.53  552 
29Nigel Doyle   55:13.92  548 
30577.12Ruben MacIas   Plano, TX55:30.84 274143  417 DALLAS BIKE WORKS
31Alex Anaya   56:34.81  657 
32Endo King   56:45.57  419 Jimmy John's
33Joe Ezernack   1:00:20.52  549 
34Trey Stephens   1:01:36.40  734 
35Don Bullard   1:02:12.84  547 
36Jason Grubaugh   1:02:34.58  551 
37Dexter Laureano   1:02:55.77  729 
38Jeff Deyka   1:06:30.15  722 
39Jeffrey Bnum   1:14:51.69  737 
40Dayne Berkner   1:16:34.85  703 
DNSLee Baranda     728 
DNSKeith Maddox   Fort Worth, TX 349874  543 
DNSCraig Walters     684 

Men - Cat 3 - Master - 40-49 (8.6 Miles)

 Place Points NameCity, StateTime USAC #BibTeam
1530.06Patrick Moneymaker   Carrollton44:40.78 355740  555 RBM / MATRIX
2Tom McCracken   44:45.69  562 
3533.14Robert Plaskota   Fort Worth, TX44:53.78 187400  437 Freethought
4Robert Saucedo   45:00.20  727 
5536.22Keith McDonald   Memphis, TN45:11.91 268337  731 
6537.76Alexander Link   Dallas, TX45:21.95 190280  559 
7539.30Tony Washington   Richmond, VA45:24.85 170763  448 Bonzai Cycle Werx
8Ralph Austin   46:16.95  690 
9542.38Joey Anzaldua   Bedford, TX46:21.83 311887  756 
10Brent Neufeld   46:32.06  442 
11Craig Lauterbach   46:44.56  725 
12Jay Hymel   47:29.07  557 
13548.54Jim Beck   Plano, TX47:51.90 360004  746 
14Jeff Redd   48:01.91  704 
15David Robison   48:18.79  446 This space for lease
16553.16Todd Odom   Dallas, TX48:28.82 356734  436 n/a
17Stephen Winchester   48:35.43  706 
18Chago Flores   48:38.09  556 Dirt Side Ministry
19Jeff Manning   50:06.27  560 
20Grant Davis   50:11.04  748 
21Jorge Tovar   50:42.72  563 Bikerholic MTB
22562.40Phillip Odom   Durham, NC50:43.86 285553  717 
23Brad Freeman   51:10.21  752 
24Chris Clendenin   51:28.75  687 DALLAS BIKE WORKS
25567.02Ed Mazur   Frisco, TX51:34.90 309059  561 Team in Training
26Jeff Moore   51:59.60  441 
27Brant Roeming   52:08.09  745 
28Robb Wagner   52:48.19  564 
29Mike Pilgrim   55:50.46  445 
30Steven Tudor   56:04.12  447 
31Bill Jones   57:15.67  558 
32577.80Brad Boulton   Alvarado, TX58:42.29 357045  435 
33Mike Massingill   59:20.23  440 
34John Devine   1:02:10.38  726 
35582.42Mike Owens   Greenville, TX1:08:54.09 251844  443 
36Kurtis Smith   1:11:22.78  691 
37585.50Rob Yates   Rowlett, TX1:18:26.42 358226  438 
38Michael McGee   1:20:02.04  391 
39James Henson   1:27:38.29  750 
40590.12Joe Seitz   Dallas, TX1:31:21.97 358434  695 
DNSScott Herrera     439 

Men - Cat 3 - Master - 50+ (8.6 Miles)

 Place Points NameCity, StateTime USAC #BibTeam
1Mark Johnson   44:05.95  567 
2Mark Hearn   47:51.28  716 
3Dan Moore   47:58.63  451 TenaciousD
4Steve Lafferty   48:02.32  568 
5556.68Brent Armstrong   Clearwater, FL48:56.98 109403  566 SLORNU
6Steve Jester   49:51.48  685 
7565.02Dan Marchok   Princeton, TX50:57.77 358548  449 
8569.19Greg Golly   Grapevine, TX51:20.26 78506  565 Team Bicycles, Inc
9John Bewsoln   51:51.62  757 
10John Carmack   51:54.20  705 
11Jese De La Rocha   55:51.61  702 MATRIX/RBM
12John Loewen   1:02:51.01  450 
13590.04O Vera   Fort Worth, TX1:08:09.42 358581  697 BICYCLES PLUS
DNSEdward Flores   Grandprairie, TX 309594  700 

Women - Cat 1/2/3 - Single Speed (23.8 Miles)

 Place Points NameCity, StateTime USAC #BibTeam
1Inna Innes   Mckinney, TX2:26:36.07 231914  487 

Women - Cat 1 - Master - 40-49 (23.8 Miles)

 Place Points NameCity, StateTime USAC #BibTeam
1Jen Ragan Marlowe   Royse City, TX2:11:48.73 143436  602 Rockwall Cycling
2Pam Jackson   2:12:54.65  606 

Women - Cat 1 - Master - 50+ (23.8 Miles)

 Place Points NameCity, StateTime USAC #BibTeam
1Kathy Johnson   Dallas, TX2:22:42.97 157466  485 RBM / Matrix Cycle Club

Women - Cat 2 - Single Speed (16.2 Miles)

 Place Points NameCity, StateTime USAC #BibTeam
1Susan Dean   Flower Mound, TX1:40:58.88 319114  523 BIG PIG RACING
2Pamela Jackson   Garland, TX1:49:50.23 157028  607 

Women - Cat 2 - Senior - 19-29 (16.2 Miles)

 Place Points NameCity, StateTime USAC #BibTeam
1Sarah Thieme   1:40:11.73  644 

Women - Cat 2 - Master - 30-39 (16.2 Miles)

 Place Points NameCity, StateTime USAC #BibTeam
1540.00Lorinda Putter   Allen, TX1:31:05.77 269731  661 
2Xochilt Gonzales   1:34:08.04  699 
3Julie Gavran   1:35:08.68  401 VTV Family Outreach Foundation

Women - Cat 2 - Master - 40-49 (16.2 Miles)

 Place Points NameCity, StateTime USAC #BibTeam
1Anik Gilbert   Richardson, TX1:35:49.38 308316  522 PACC
2Denise Weber   Bloomington, IL1:40:24.95 209658  521 DALLAS BIKEWORKS/HOOTERS

Women - Cat 2 - Master - 50+ (16.2 Miles)

 Place Points NameCity, StateTime USAC #BibTeam
1Connie Mullins   1:39:15.13  651 

Women - Cat 3 - Junior - 1-9 (3 Miles)

 Place Points NameCity, StateTime USAC #BibTeam
1Hailey Moore   21:26.65  583 
2Lizzie Carpenter   27:11.51  453 RBM Team Matrix

Women - Cat 3 - Junior - 10-12 (5 Miles)

 Place Points NameCity, StateTime USAC #BibTeam
1Jessica Tudor   40:56.00  461 
3Kara Chidester   43:15.70  572 
4Piper Brandenburger   43:48.35  742 
5Taylor Moore   48:17.79  573 
6Samantha Varriale   1:10:28.87  709 BIG PIG RACING
DNSMelissa Brown     459 
DNSSadie Moore     460 

Women - Cat 3 - Junior - 13-18 (8.6 Miles)

 Place Points NameCity, StateTime USAC #BibTeam
1Kaylee Tredway   1:02:29.77  462 Don Johle's Bike World
2Mckenna Holmes   1:27:05.86  574 BIG PIG RACING

Women - Cat 3 - Senior - 19-29 (8.6 Miles)

 Place Points NameCity, StateTime USAC #BibTeam
1Misty Blasingame   53:47.74  575 
2Jessica Reich   55:19.10  576 BICYCLES PLUS
3Natalie Whitehead   58:24.96  701 

Women - Cat 3 - Master - 30-39 (8.6 Miles)

 Place Points NameCity, StateTime USAC #BibTeam
1540.00Lisa Hite   Pilotpoint, TX52:03.73 309742  733 Team Phoenix
2Vanessa Fyffe   54:30.51  463 North TX MB Patrol Racing
3Dulce Vazquez   1:00:15.79  694 
4Jennifer Jeter   1:04:40.48  577 Team Me Too WIcked Fast RBM
5Shelli Tredway   1:06:57.55  464 Don Johle's Bike World
DNSMichelle Kampschroeder     578 

Women - Cat 3 - Master - 40-49 (8.6 Miles)

 Place Points NameCity, StateTime USAC #BibTeam
1Julia Hart   47:21.03  579 
2Monica Otte   50:18.08  469 Cool Biker Chicks
3Liz Sandusky   51:04.50  582 
4Susan Pollard   57:52.74  581 
5565.00Kaoruko Yamamoto   Bedford, TX58:24.35 244009  679 
6Andrea Hulcy   59:44.81  467 
7Chi Bennett   1:00:56.90  466 Cool Biker Chicks
8583.75Jill Moore   Newbury, MA1:07:10.62 85466  468 
9Cathy O'Toole   1:10:35.51  580 
DNSTracy Sorensen     465 

Women - Cat 3 - Master - 50+ (8.6 Miles)

 Place Points NameCity, StateTime USAC #BibTeam
1Trish Loewen   1:00:08.07  470 

- UNKNOWN - Junior Men 13-1 (8.6 Miles)

 Place Points NameCity, StateTime USAC #BibTeam
DNFAustin Ballard   3:20:48.01  533 

- UNKNOWN - Master Men 30-3 (8.6 Miles)

 Place Points NameCity, StateTime USAC #BibTeam
DNFHeath Wade   3:37:40.52  432 

Report missing or incorrect license numbers

Volkswagen
Sierra NevadaBonk BreakerSpyUSACDFShimano
UCI USA Cycling is the official governing body for all disciplines of competitive cycling in the United States. The 501c3, membership-based organization aims both to achieve sustained success in international cycling competition and to grow competitive cycling in America while delivering an exceptional customer experience.
View Children's Online Privacy Protection Policy
US Olympic Committee